| time (UTC) | temp F | wind direction | speed knots | gust knots | rain 1hr in | rain 24hr in | rain mn in | humidity % | barometer mb |
| 20260505111503 | 58 | 304 | 0.9 | 7.8 | 0.00 | 0.00 | 0.00 | 60 | 1014.2 |
| 20260505110503 | 57 | 346 | 1.7 | 7.0 | 0.00 | 0.00 | 0.00 | 63 | 1014.3 |
| 20260505102003 | 55 | 302 | 4.3 | 7.0 | 0.00 | 0.00 | 0.00 | 66 | 1014.4 |
| 20260505101503 | 55 | 296 | 3.5 | 7.0 | 0.00 | 0.00 | 0.00 | 66 | 1014.4 |
| 20260505101003 | 55 | 311 | 2.6 | 8.7 | 0.00 | 0.00 | 0.00 | 69 | 1014.4 |
| 20260505100003 | 54 | 305 | 4.3 | 7.8 | 0.00 | 0.00 | 0.00 | 71 | 1014.4 |
| 20260505095502 | 54 | 296 | 5.2 | 10.4 | 0.00 | 0.00 | 0.00 | 71 | 1014.4 |
| 20260505095003 | 55 | 309 | 3.5 | 7.8 | 0.00 | 0.00 | 0.00 | 70 | 1014.3 |
| 20260505094003 | 54 | 338 | 5.2 | 11.3 | 0.00 | 0.00 | 0.00 | 73 | 1014.2 |
| 20260505093003 | 54 | 302 | 4.3 | 7.0 | 0.00 | 0.00 | 0.00 | 73 | 1014.3 |
| 20260505091503 | 54 | 314 | 3.5 | 7.8 | 0.00 | 0.00 | 0.00 | 72 | 1014.4 |
| 20260505091003 | 54 | 310 | 2.6 | 10.4 | 0.00 | 0.00 | 0.00 | 71 | 1014.3 |
| 20260505090503 | 54 | 290 | 2.6 | 4.3 | 0.00 | 0.00 | 0.00 | 73 | 1014.4 |
| 20260505090003 | 54 | 28 | 0.9 | 6.1 | 0.00 | 0.00 | 0.00 | 74 | 1014.3 |
| 20260505085502 | 53 | 331 | 2.6 | 7.0 | 0.00 | 0.00 | 0.00 | 73 | 1014.3 |
| 20260505085003 | 53 | 356 | 1.7 | 4.3 | 0.00 | 0.00 | 0.00 | 74 | 1014.4 |
| 20260505083003 | 52 | 313 | 5.2 | 8.7 | 0.00 | 0.00 | 0.00 | 76 | 1014.4 |
| 20260505081003 | 53 | 0 | 2.6 | 5.2 | 0.00 | 0.00 | 0.00 | 77 | 1014.2 |
| 20260505080503 | 52 | 340 | 2.6 | 7.8 | 0.00 | 0.00 | 0.00 | 75 | 1014.4 |
| 20260505080003 | 52 | 301 | 4.3 | 7.8 | 0.00 | 0.00 | 0.00 | 76 | 1014.4 |
| 20260505074503 | 51 | 305 | 6.1 | 10.4 | 0.00 | 0.00 | 0.00 | 77 | 1014.3 |
| 20260505074003 | 52 | 304 | 2.6 | 8.7 | 0.00 | 0.00 | 0.00 | 77 | 1014.4 |
| 20260505073503 | 51 | 298 | 4.3 | 7.0 | 0.00 | 0.00 | 0.00 | 80 | 1014.3 |
| 20260505072503 | 51 | 299 | 5.2 | 8.7 | 0.00 | 0.00 | 0.00 | 81 | 1014.4 |
| 20260505071003 | 51 | 300 | 2.6 | 4.3 | 0.00 | 0.00 | 0.00 | 82 | 1014.5 |
| 20260505070503 | 50 | 303 | 3.5 | 7.0 | 0.00 | 0.00 | 0.00 | 82 | 1014.6 |
| 20260505070003 | 50 | 299 | 5.2 | 10.4 | 0.00 | 0.00 | 0.00 | 81 | 1014.5 |
| 20260505065502 | 50 | 305 | 2.6 | 7.0 | 0.00 | 0.00 | 0.00 | 83 | 1014.4 |
| 20260505063503 | 50 | 312 | 3.5 | 7.0 | 0.00 | 0.00 | 0.00 | 85 | 1014.5 |
| 20260505062502 | 50 | 299 | 5.2 | 7.8 | 0.00 | 0.00 | 0.00 | 85 | 1014.5 |
| 20260505061503 | 50 | 304 | 4.3 | 6.1 | 0.00 | 0.00 | 0.00 | 86 | 1014.6 |
| 20260505055505 | 49 | 292 | 0.9 | 2.6 | 0.00 | 0.00 | 0.00 | 89 | 1014.6 |
| 20260505055003 | 49 | 307 | 0.9 | 2.6 | 0.00 | 0.00 | 0.00 | 89 | 1014.6 |
| 20260505054003 | 48 | 323 | 0.9 | 2.6 | 0.00 | 0.00 | 0.00 | 90 | 1014.6 |
| 20260505053003 | 48 | 300 | 0.9 | 1.7 | 0.00 | 0.00 | 0.00 | 91 | 1014.6 |
| 20260505052503 | 47 | 295 | 1.7 | 2.6 | 0.00 | 0.00 | 0.00 | 91 | 1014.7 |
| 20260505052003 | 47 | 298 | 0.9 | 2.6 | 0.00 | 0.00 | 0.00 | 92 | 1014.5 |
| 20260505051503 | 47 | 297 | 1.7 | 2.6 | 0.00 | 0.00 | 0.00 | 92 | 1014.5 |
| 20260505035503 | 44 | 290 | 0.0 | 0.0 | 0.00 | 0.00 | 0.00 | 93 | 1014.5 |
| 20260505035004 | 44 | 290 | 0.0 | 0.0 | 0.00 | 0.00 | 0.00 | 93 | 1014.5 |
| 20260505034003 | 44 | 290 | 0.0 | 0.9 | 0.00 | 0.00 | 0.00 | 93 | 1014.4 |
| 20260505033503 | 44 | 290 | 0.0 | 0.9 | 0.00 | 0.00 | 0.00 | 93 | 1014.4 |
| 20260505032003 | 44 | 281 | 0.0 | 0.9 | 0.00 | 0.00 | 0.00 | 92 | 1014.4 |
| 20260505031003 | 44 | 293 | 0.9 | 1.7 | 0.00 | 0.00 | 0.00 | 93 | 1014.4 |
| 20260505030003 | 44 | 299 | 0.0 | 0.9 | 0.00 | 0.00 | 0.00 | 92 | 1014.4 |
| 20260505025502 | 45 | 299 | 0.0 | 1.7 | 0.00 | 0.00 | 0.00 | 93 | 1014.5 |
| 20260505024503 | 45 | 297 | 0.9 | 0.9 | 0.00 | 0.00 | 0.00 | 92 | 1014.5 |
| 20260505024003 | 44 | 297 | 0.0 | 0.0 | 0.00 | 0.00 | 0.00 | 92 | 1014.6 |
| 20260505023503 | 45 | 297 | 0.0 | 0.0 | 0.00 | 0.00 | 0.00 | 91 | 1014.6 |
| 20260505023003 | 45 | 297 | 0.0 | 0.9 | 0.00 | 0.00 | 0.00 | 91 | 1014.6 |
| 20260505021503 | 45 | 290 | 0.9 | 1.7 | 0.00 | 0.00 | 0.00 | 92 | 1014.7 |
| 20260505021003 | 45 | 292 | 0.9 | 1.7 | 0.00 | 0.00 | 0.00 | 92 | 1014.7 |
| 20260505020503 | 45 | 289 | 0.9 | 1.7 | 0.00 | 0.00 | 0.00 | 92 | 1014.8 |
| 20260505015503 | 45 | 289 | 0.0 | 0.0 | 0.00 | 0.00 | 0.00 | 91 | 1014.8 |
| 20260505014504 | 45 | 289 | 0.0 | 0.9 | 0.00 | 0.00 | 0.00 | 92 | 1014.8 |
| 20260505014003 | 45 | 288 | 0.0 | 1.7 | 0.00 | 0.00 | 0.00 | 92 | 1014.7 |
| 20260505013506 | 45 | 305 | 0.9 | 2.6 | 0.00 | 0.00 | 0.00 | 92 | 1014.7 |
| 20260505013003 | 45 | 307 | 0.9 | 2.6 | 0.00 | 0.00 | 0.00 | 92 | 1014.7 |
| 20260505011003 | 45 | 311 | 0.9 | 1.7 | 0.00 | 0.00 | 0.00 | 91 | 1014.7 |
| 20260505004503 | 45 | 309 | 0.0 | 0.0 | 0.00 | 0.00 | 0.00 | 91 | 1014.8 |
| 20260505003003 | 45 | 309 | 0.0 | 0.0 | 0.00 | 0.00 | 0.00 | 90 | 1014.9 |
| 20260505002503 | 45 | 309 | 0.0 | 0.0 | 0.00 | 0.00 | 0.00 | 90 | 1014.8 |
| 20260505002003 | 46 | 309 | 0.0 | 0.9 | 0.00 | 0.00 | 0.00 | 90 | 1014.8 |
| 20260505001004 | 46 | 309 | 0.0 | 0.0 | 0.00 | 0.00 | 0.00 | 89 | 1014.9 |
| 20260504235003 | 46 | 309 | 0.0 | 0.9 | 0.00 | 0.00 | 0.00 | 88 | 1014.7 |
| 20260504234503 | 46 | 309 | 0.0 | 0.9 | 0.00 | 0.00 | 0.00 | 88 | 1014.7 |
| 20260504232502 | 47 | 308 | 1.7 | 2.6 | 0.00 | 0.00 | 0.00 | 88 | 1014.8 |
| 20260504232003 | 47 | 312 | 0.9 | 2.6 | 0.00 | 0.00 | 0.00 | 88 | 1014.8 |
| 20260504231503 | 47 | 302 | 1.7 | 2.6 | 0.00 | 0.00 | 0.00 | 88 | 1014.8 |
| 20260504230503 | 46 | 303 | 0.9 | 1.7 | 0.00 | 0.00 | 0.00 | 88 | 1015.0 |
| 20260504225503 | 46 | 283 | 0.0 | 0.9 | 0.00 | 0.00 | 0.00 | 88 | 1015.1 |
| 20260504223503 | 46 | 257 | 0.0 | 0.9 | 0.00 | 0.00 | 0.00 | 89 | 1015.2 |
| 20260504222503 | 47 | 257 | 0.0 | 0.9 | 0.00 | 0.00 | 0.00 | 89 | 1015.3 |
| 20260504222003 | 47 | 190 | 0.0 | 0.0 | 0.00 | 0.00 | 0.00 | 89 | 1015.2 |
| 20260504221504 | 47 | 190 | 0.0 | 0.0 | 0.00 | 0.00 | 0.00 | 90 | 1015.3 |
| 20260504220003 | 46 | 190 | 0.0 | 0.0 | 0.00 | 0.00 | 0.00 | 89 | 1015.3 |
| 20260504215003 | 47 | 190 | 0.0 | 0.0 | 0.00 | 0.00 | 0.00 | 88 | 1015.4 |
| 20260504214504 | 47 | 190 | 0.0 | 0.0 | 0.00 | 0.00 | 0.00 | 88 | 1015.3 |
| 20260504214004 | 48 | 190 | 0.0 | 0.0 | 0.00 | 0.00 | 0.00 | 89 | 1015.4 |
| 20260504213503 | 48 | 190 | 0.0 | 0.0 | 0.00 | 0.00 | 0.00 | 89 | 1015.4 |
| 20260504213003 | 48 | 190 | 0.0 | 0.0 | 0.00 | 0.00 | 0.00 | 89 | 1015.3 |
| 20260504212503 | 48 | 190 | 0.0 | 0.0 | 0.00 | 0.00 | 0.00 | 88 | 1015.4 |
| 20260504210503 | 48 | 190 | 0.0 | 0.0 | 0.00 | 0.00 | 0.00 | 87 | 1015.4 |
| 20260504205503 | 49 | 190 | 0.0 | 1.7 | 0.00 | 0.00 | 0.00 | 87 | 1015.5 |
| 20260504205003 | 49 | 245 | 0.0 | 0.9 | 0.00 | 0.00 | 0.00 | 85 | 1015.5 |
| 20260504203503 | 50 | 247 | 0.0 | 0.9 | 0.00 | 0.00 | 0.00 | 84 | 1015.5 |
| 20260504203003 | 51 | 252 | 0.0 | 0.0 | 0.00 | 0.00 | 0.00 | 85 | 1015.4 |
| 20260504200503 | 51 | 235 | 0.0 | 0.9 | 0.00 | 0.00 | 0.00 | 83 | 1015.4 |
| 20260504200004 | 51 | 244 | 0.0 | 0.9 | 0.00 | 0.00 | 0.00 | 83 | 1015.4 |
| 20260504192503 | 53 | 222 | 0.0 | 2.6 | 0.00 | 0.00 | 0.00 | 79 | 1015.2 |
| 20260504185003 | 55 | 261 | 1.7 | 4.3 | 0.00 | 0.00 | 0.00 | 75 | 1015.1 |
| 20260504184003 | 56 | 269 | 1.7 | 4.3 | 0.00 | 0.00 | 0.00 | 74 | 1015.1 |
| 20260504181004 | 57 | 267 | 0.9 | 4.3 | 0.00 | 0.00 | 0.00 | 72 | 1015.0 |
| 20260504180503 | 57 | 247 | 1.7 | 5.2 | 0.00 | 0.00 | 0.00 | 71 | 1015.0 |
| 20260504180003 | 58 | 255 | 0.9 | 2.6 | 0.00 | 0.00 | 0.00 | 71 | 1015.0 |
| 20260504175003 | 58 | 231 | 0.9 | 4.3 | 0.00 | 0.00 | 0.00 | 71 | 1014.9 |
| 20260504174503 | 58 | 201 | 0.9 | 5.2 | 0.00 | 0.00 | 0.00 | 71 | 1015.0 |
| 20260504174004 | 58 | 313 | 0.0 | 4.3 | 0.00 | 0.00 | 0.00 | 71 | 1015.0 |
| 20260504173004 | 58 | 247 | 1.7 | 5.2 | 0.00 | 0.00 | 0.00 | 70 | 1014.9 |
| 20260504172003 | 59 | 245 | 1.7 | 6.1 | 0.00 | 0.00 | 0.00 | 70 | 1015.1 |
| 20260504170503 | 59 | 216 | 0.9 | 5.2 | 0.00 | 0.00 | 0.00 | 69 | 1015.0 |
| 20260504130503 | 62 | 224 | 2.6 | 7.8 | 0.00 | 0.00 | 0.00 | 68 | 1015.3 |